"Pseudo-MPEC" for A119H5w

Created 2024 Aug 14 22:22:03 UT using Find_Orb

Click here for an explanation of pseudo-MPECs

 
 Astrometry: 
     A119H5w* C2024 08 12.57048700 31 37.963+02 26 26.74   ~8CJq 19.14oVNEOCPT08
     A119H5w  C2024 08 12.60316600 31 19.085+02 28 45.55   ~8CJq 19.26oVNEOCPT08
     A119H5w  C2024 08 12.60660700 31 17.134+02 28 59.56   ~8CJq 19.34oVNEOCPT08
     A119H5w  C2024 08 12.61473300 31 12.398+02 29 33.65   ~8CJq 19.22oVNEOCPT08
     A119H5w KB2024 08 12.92936 00 28 24.27 +02 51 07.6    ~8CMq 18.8 GXNEOCPM45
     A119H5w KB2024 08 12.93288 00 28 22.27 +02 51 22.2    ~8CMq 19.0 GXNEOCPM45
     A119H5w KB2024 08 12.93622 00 28 20.38 +02 51 35.9    ~8CMq 18.7 GXNEOCPM45
     A119H5w KC2024 08 12.96336400 28 05.81 +02 53 30.1    ~8D07 18.8 GVNEOCP203
     A119H5w KB2024 08 12.97645 00 27 58.200+02 54 18.94   ~8D0bx18.9 GXNEOCPL38
     A119H5w KB2024 08 12.98409 00 27 53.870+02 54 51.12   ~8D0bx18.8 GXNEOCPL38
     A119H5w KC2024 08 12.98579700 27 53.12 +02 55 05.1    ~8D07 19.4 GVNEOCP203
     A119H5w KB2024 08 12.99167 00 27 49.634+02 55 21.97   ~8D0bx19.6 GXNEOCPL38
     A119H5w KC2024 08 13.02223200 27 32.22 +02 57 38.5    ~8D1M 19.4 GVNEOCPK51
     A119H5w KC2024 08 13.03053800 27 27.48 +02 58 13.7    ~8D1M 19.3 GVNEOCPK51
     A119H5w KC2024 08 13.03884700 27 22.71 +02 58 48.8    ~8D1M 19.7 GVNEOCPK51
     A119H5w KC2024 08 13.04438600 27 20.162+02 59 06.47   ~8D1b 19.2 GVNEOCPJ95
     A119H5w KC2024 08 13.04966900 27 17.134+02 59 28.39   ~8D1b 19.5 GVNEOCPJ95
     A119H5w KC2024 08 13.05255800 27 15.470+02 59 41.10   ~8D1b 19.5 GVNEOCPJ95
     A119H5w KC2024 08 13.05555800 27 13.783+02 59 53.05   ~8D1b 19.6 GVNEOCPJ95
     A119H5w KC2024 08 13.06024 00 27 10.70 +03 00 15.0    ~8D2q 19.6 GVNEOCPD48
     A119H5w KC2024 08 13.07467 00 27 02.46 +03 01 15.2    ~8D2q 19.4 GVNEOCPD48
     A119H5w KC2024 08 13.07883600 26 59.67 +03 01 37.5    ~8D2M 19.8 GXNEOCPL01
     A119H5w KC2024 08 13.08057100 26 58.67 +03 01 44.9    ~8D2M 19.5 GXNEOCPL01
     A119H5w KC2024 08 13.08229900 26 57.68 +03 01 52.1    ~8D2M 19.7 GXNEOCPL01
     A119H5w KC2024 08 13.08382600 26 56.80 +03 01 58.6    ~8D2M 19.6 GXNEOCPL01
     A119H5w KC2024 08 13.08514200 26 56.07 +03 02 04.0    ~8D2M 20.0 GXNEOCPL01
     A119H5w KC2024 08 13.08922 00 26 54.09 +03 02 16.8    ~8D2q 19.6 GVNEOCPD48
     A119H5w KB2024 08 13.10102 00 26 47.26 +03 03 10.2    ~8D7M       VNEOCP204
     A119H5w KB2024 08 13.10961 00 26 42.33 +03 03 46.4    ~8D7M 19.5 GVNEOCP204
     A119H5w KB2024 08 13.11819 00 26 37.41 +03 04 22.3    ~8D7M       VNEOCP204
     A119H5w |C2024 08 13.40866000 23 54.990+03 26 17.60   ~8DAM 18.9 GVNEOCP807
     A119H5w |C2024 08 13.41087000 23 53.750+03 26 26.70   ~8DAM 19.2 GVNEOCP807
     A119H5w |C2024 08 13.41307000 23 52.470+03 26 36.10   ~8DAM 19.3 GVNEOCP807
     A119H5w KB2024 08 13.65360200 21 44.008+03 41 58.66   ~8DGb 19.2 VZNEOCPQ06
     A119H5w KB2024 08 13.66117200 21 39.624+03 42 30.66   ~8DGb 18.8 VZNEOCPQ06
     A119H5w KC2024 08 13.66309300 21 36.132+03 44 18.64   ~8DGM 19.1 GVNEOCP474
     A119H5w KC2024 08 13.66568300 21 34.603+03 44 29.36   ~8DGM 19.2 GVNEOCP474
     A119H5w KC2024 08 13.66827200 21 33.103+03 44 40.16   ~8DGM 19.2 GVNEOCP474
     A119H5w KB2024 08 13.66874200 21 35.225+03 43 02.31   ~8DGb 19.1 VZNEOCPQ06
     A119H5w KB2024 08 13.76623 00 20 41.29 +03 49 57.3    ~8E67       VNEOCPO46
     A119H5w KB2024 08 13.77444 00 20 36.54 +03 50 31.6    ~8E67       VNEOCPO46
     A119H5w KB2024 08 13.78246 00 20 31.86 +03 51 05.4    ~8E67       VNEOCPO46
     A119H5w KB2024 08 13.78939 00 20 27.82 +03 51 34.5    ~8E67       VNEOCPO46
     A119H5w KB2024 08 13.80237 00 20 18.99 +03 52 16.2    ~8E5q 18.8 GVNEOCPP13
     A119H5w KB2024 08 13.80749 00 20 16.05 +03 52 37.3    ~8E5q 19.2 GVNEOCPP13
     A119H5w KB2024 08 13.81286 00 20 12.92 +03 53 00.5    ~8E5q 18.7 GVNEOCPP13
     A119H5w KB2024 08 13.81799 00 20 09.96 +03 53 21.4    ~8E5q 18.7 GVNEOCPP13
     A119H5w KC2024 08 13.96165 00 18 52.62 +04 03 09.5    ~8DNq 19.4 GXNEOCPG02
     A119H5w KC2024 08 13.96880 00 18 48.51 +04 03 39.4    ~8DNq 19.2 GXNEOCPG02
     A119H5w KC2024 08 13.97597 00 18 44.39 +04 04 09.3    ~8DNq 19.8 GXNEOCPG02
     A119H5w KC2024 08 14.03371 00 18 11.58 +04 08 15.8    ~8E1M 18.5 GXNEOCPK83
     A119H5w KC2024 08 14.03698 00 18 09.68 +04 08 29.8    ~8E1M 19.5 GXNEOCPK83
     A119H5w KC2024 08 14.04007 00 18 07.91 +04 08 42.9    ~8E1M 19.4 GXNEOCPK83
     A119H5w KC2024 08 14.31442600 15 34.75 +04 27 47.2    ~8E87 19.5 GVNEOCPH21
     A119H5w KC2024 08 14.31722300 15 33.12 +04 27 58.8    ~8E87 19.5 GVNEOCPH21
     A119H5w KC2024 08 14.32002000 15 31.49 +04 28 10.5    ~8E87 19.4 GVNEOCPH21
     A119H5w KC2024 08 14.32281800 15 29.85 +04 28 22.0    ~8E87 19.4 GVNEOCPH21
     A119H5w KC2024 08 14.32580100 15 28.11 +04 28 34.4    ~8E87 19.4 GVNEOCPH21
     A119H5w  C2024 08 14.52841800 13 34.402+04 42 56.30   ~8EMM 18.87cVNEOCPT05
     A119H5w  C2024 08 14.53158300 13 32.546+04 43 09.08   ~8EMM 19.23cVNEOCPT05
     A119H5w  C2024 08 14.53474800 13 30.667+04 43 22.94   ~8EMM 19.16cVNEOCPT05
     A119H5w  C2024 08 14.57729900 13 05.496+04 46 17.65   ~8EMM 19.21cVNEOCPT05
     A119H5w  C2024 08 14.58966300 12 58.186+04 47 09.74   ~8EMM 19.40cVNEOCPT05

Station data:
(203) GiaGa Observatory  (N45.541442 E8.995480)  Italy.  Observers S. Foglia,
   G. Galli. Measurer G. Galli. 0.36-m f/5.76 Schmidt-Cassegrain + CCD.
(204) Schiaparelli Observatory  (N45.868292 E8.769720)  Italy.  Observer L.
   Buzzi. 0.60-m f/4.64 Newtonian + CCD0.84-m f/3.5 reflector + CCD.
(474) Mount John Observatory, Lake Tekapo  (S43.987385 E170.464960)  New
   Zealand.  Observers A. C. Gilmore, P. M. Kilmartin. Measurer P. M.
   Kilmartin. 1.0-m f/7.7 reflector + CCD.
(807) Cerro Tololo Observatory, La Serena  (S30.169133 W70.805900)  Chile.
   Observer R. Holmes. 0.61-m f/6.5 astrograph + CCD.
(D48) Niederbexbach Observatory  (N49.330848 E7.263810)  Germany.
(G02) KYSUCE Observatory, Kysucke Nove Mesto  (N49.307313 E18.765390)
   Slovakia.  Observer M. Urbanik. 0.40-m f/4.4 reflector + CCD.
(H21) Astronomical Research Observatory, Westfield  (N39.483054 W87.968270)
   US/Illinois.  Observer R. Holmes. Measurers S. Foglia, L. Buzzi, T.
   Linder, R. Holmes. 0.76-m f/3.0 astrograph + CCD0.81-m f/4.0 astrograph +
   CCD0.61-m f/4.5 astrograph + CCD0.40-m f/5.32 astrograph + CCD.
(J95) Great Shefford  (N51.474969 W1.447003)  UK/England.  Observer P.
   Birtwhistle. 0.41-m f/6.3 Schmidt-Cassegrain + CCD.
(K51) Osservatorio del Celado, Castello Tesino  (N46.029480 E11.657890)
   Italy.  Observers G. Favero, R. Furgoni. Measurer R. Furgoni. 0.80-m f/4
   reflector + CCD.
(K83) Beppe Forti Astronomical Observatory, Montelupo  (N43.755330
   E11.043170)  Italy.  Observers M. Tombelli, A. Mazzanti, E. Venticinque.
   Measurers G. Interrante, M. Iozzi, M. Tombelli, F. Bernardi. 0.40-m f/8
   Ritchey-Chrétien + CCD.
(L01) Višnjan Observatory, Tičan  (N45.290897 E13.749300)  Croatia.
   Observers K. Korlević, D. Pujagic, V. Dobos. Measurers D. Pujagic, K.
   Korlević. 1.0-m f/2.9 reflector + CCD.
(L38) Gartensternwarte Schafsweide, Sehlde  (N52.095274 E9.699970)  Germany.
   Observer A. Opitz. 0.35-m f/4.6 Newton + CCD.
(M45) Starhopper Observatory, Sfantu Gheorghe  (N45.865582 E25.768900)
   Romania.  Observer F. Ursache. 0.41-m f/7.5 reflector + CMO.
(O46) Daocheng Glacier Observatory  (N29.011748 E100.226640)  China.
(P13) Baihuashan Observatory, Beijing  (N39.837554 E115.573330)  China.
(Q06) Tarui Observatory, Tarui  (N35.394791 E136.495470)  Japan.
(T05) ATLAS-HKO, Haleakala  (N20.707551 W156.257010)  US/Hawaii.  Observers
   L. Denneau, A. Heinze, H. Weiland, J. Tonry, H. Flewelling, A.
   Fitzsimmons, D. Young, B. Stalder. Measurers L. Denneau, A. Heinze, J.
   Tonry. 0.5-m f/2.0 Schmidt + CCD.
(T08) ATLAS-MLO, Mauna Loa  (N19.536150 W155.576050)  US/Hawaii.  Observers
   L. Denneau, A. Heinze, H. Weiland, J. Tonry, H. Flewelling, A.
   Fitzsimmons, D. Young, B. Stalder. Measurers L. Denneau, A. Heinze, J.
   Tonry. 0.5-m f/2.0 Schmidt + CCD.

Orbital elements:  A119H5w
   Perihelion 2024 Apr 26.78453 +/- 0.0463 TT = 18:49:43 (JD 2460427.28453)
Epoch 2024 Aug 14.0 TT = JDT 2460536.5   Earth MOID: 0.0587   Ve: 0.0592
M 115.16120435 +/- 0.07             (J2000 ecliptic)             AutoNEOCP
n   1.05444039 +/- 0.000324         Peri.  223.69295 +/- 0.052
a   0.95599295 +/- 0.000196         Node   324.70223 +/- 0.006
e   0.2447488 +/- 0.000321          Incl.   14.89394 +/- 0.027
P   0.935/341.407d         H 22.46  G  0.15   U  7.4
q 0.72201474 +/- 0.000334    Q 1.18997116 +/- 0.000402
60 of 63 observations 2024 Aug. 12-14; mean residual 0".27
Residuals in arcseconds: 
240812 T08  .06-  .57-    240813 L01  .12-  .00     240813 O46  .04+  .19+    
240812 T08  .24-  .58+    240813 L01  .18-  .10+    240813 P13  .48-  .27+    
240812 T08  .26+  .10+    240813 L01  .15-  .04+    240813 P13  .09+  .00     
240812 T08  .51-  .01-    240813 L01  .20-  .12+    240813 P13  .00   .79+    
240812 M45  .38-  .31+    240813 L01  .19+  .02-    240813 P13  .36+  .28+    
240812 M45  .50-  .05+    240813 D48  .30-  .35-    240813 G02  .27+  .21-    
240812 M45  .48-  .35-    240813 204  .05-  .02+    240813 G02  .26+  .20-    
240812 203  .17-  .43-    240813 204  .03-  .12+    240813 G02  .34+  .27-    
240812 L38( 1.9+  .66-)   240813 204  .05+  .03-    240814 K83  .14-  .27-    
240812 L38( 1.7+  .70-)   240813 807  .63-  .30-    240814 K83  .17-  .09+    
240812 203  .05-  .11-    240813 807  .08-  .43-    240814 K83  .19+  .30+    
240812 L38( 2.4+  1.8-)   240813 807  .23-  .23-    240814 H21  .03-  .03-    
240813 K51  .02-  .08+    240813 Q06  .22-  .02+    240814 H21  .03+  .05-    
240813 K51  .06+  .28+    240813 Q06  .27-  .26+    240814 H21  .09+  .03+    
240813 K51  .21-  .38+    240813 474  .38+  .15+    240814 H21  .02+  .09-    
240813 J95  .52+  .19+    240813 474  .06-  .05+    240814 H21  .08+  .08-    
